User: anonymous   Login
Location: Killarney Provincial Park Observatory
(46.0124°N, 81.4000°W)
Time: 15:41:11
(UTC-04:00)
Language:

Iridium 22 - Orbit

View from above orbital plane
View from above orbital plane
View from above satellite
View from above satellite

Ground track
Ground track

The orbit data is extracted from the following two-line orbital elements,

1 24907U 97043E   17235.30896656 -.00000027  00000-0 -16682-4 0  9994
2 24907  86.3956 228.0280 0002230  86.4479 273.6971 14.34216077 47458
Epoch (UTC): 23 August 2017 07:24:54
Eccentricity: 0.0002230
inclination: 86.3956°
perigee height: 776 km
apogee height: 779 km
right ascension of ascending node: 228.0280°
argument of perigee: 86.4479°
revolutions per day: 14.34216077
mean anomaly at epoch: 273.6971°
orbit number at epoch: 4745

The dashed part of the orbit path shows where the satellite is in the earth's shadow,  

DLR